Hourly Weather Lugovoe

Today, 15 May, Saturday

Time Temperature Precipitation Wind Pressure Humidity
00:00 +14°C° 0 mm 3 mps 748 mmHg 61%
01:00 +13°C° 0.6 mm 3 mps 747 mmHg 69%
02:00 +13°C° 0.6 mm 3 mps 747 mmHg 76%
03:00 +12°C° 0 mm 3 mps 746 mmHg 83%
04:00 +13°C° 0.2 mm 3 mps 746 mmHg 83%
05:00 +13°C° 0.2 mm 4 mps 746 mmHg 82%
06:00 +13°C° 0.2 mm 4 mps 746 mmHg 81%
07:00 +15°C° 0 mm 5 mps 746 mmHg 75%
08:00 +17°C° 0 mm 6 mps 745 mmHg 69%
09:00 +21°C° 0 mm 7 mps 745 mmHg 62%
10:00 +21°C° 0.1 mm 7 mps 745 mmHg 65%
11:00 +21°C° 0.1 mm 7 mps 744 mmHg 67%
12:00 +21°C° 0.1 mm 7 mps 744 mmHg 69%
13:00 +21°C° 0.3 mm 7 mps 744 mmHg 73%
14:00 +20°C° 0.3 mm 7 mps 744 mmHg 76%
15:00 +20°C° 0.3 mm 7 mps 744 mmHg 80%
16:00 +16°C° 2.6 mm 6 mps 744 mmHg 85%
17:00 +14°C° 2.6 mm 4 mps 745 mmHg 89%
18:00 +13°C° 2.6 mm 2 mps 746 mmHg 94%
19:00 +13°C° 1.7 mm 2 mps 747 mmHg 94%
20:00 +12°C° 1.7 mm 2 mps 747 mmHg 95%
21:00 +12°C° 1.7 mm 2 mps 747 mmHg 95%
22:00 +12°C° 0.2 mm 2 mps 748 mmHg 95%
23:00 +12°C° 0.2 mm 2 mps 748 mmHg 94%

Tomorrow, 16 May, Sunday

Time Temperature Precipitation Wind Pressure Humidity
00:00 +12°C° 0.2 mm 2 mps 748 mmHg 94%
01:00 +10°C° 0 mm 2 mps 748 mmHg 94%
02:00 +10°C° 0 mm 2 mps 747 mmHg 94%
03:00 +9°C° 0 mm 2 mps 747 mmHg 94%
04:00 +9°C° 0 mm 2 mps 747 mmHg 93%
05:00 +10°C° 0 mm 2 mps 747 mmHg 92%
06:00 +10°C° 0 mm 2 mps 747 mmHg 91%
07:00 +13°C° 0 mm 2 mps 747 mmHg 81%
08:00 +14°C° 0 mm 2 mps 747 mmHg 71%
09:00 +16°C° 0 mm 2 mps 747 mmHg 61%
10:00 +17°C° 0 mm 3 mps 746 mmHg 56%
11:00 +18°C° 0 mm 3 mps 746 mmHg 52%
12:00 +19°C° 0 mm 3 mps 746 mmHg 47%
13:00 +20°C° 0 mm 3 mps 745 mmHg 44%
14:00 +20°C° 0 mm 3 mps 745 mmHg 42%
15:00 +21°C° 0 mm 2 mps 744 mmHg 39%
16:00 +20°C° 0 mm 2 mps 744 mmHg 45%
17:00 +20°C° 0 mm 2 mps 744 mmHg 51%
18:00 +20°C° 0 mm 1 mps 744 mmHg 57%
19:00 +18°C° 0 mm 1 mps 744 mmHg 58%
20:00 +15°C° 0 mm 1 mps 744 mmHg 59%
21:00 +13°C° 0 mm 1 mps 744 mmHg 61%
22:00 +13°C° 0 mm 1 mps 744 mmHg 62%
23:00 +13°C° 0 mm 1 mps 744 mmHg 63%

Day after tomorrow, 17 May, Monday

Time Temperature Precipitation Wind Pressure Humidity
00:00 +12°C° 0 mm 1 mps 744 mmHg 64%
01:00 +12°C° 0 mm 1 mps 744 mmHg 66%
02:00 +11°C° 0 mm 1 mps 744 mmHg 68%
03:00 +10°C° 0 mm 2 mps 744 mmHg 70%
04:00 +10°C° 0 mm 2 mps 744 mmHg 71%
05:00 +10°C° 0 mm 2 mps 745 mmHg 72%
06:00 +12°C° 0 mm 2 mps 745 mmHg 73%
07:00 +14°C° 0 mm 2 mps 745 mmHg 65%
08:00 +16°C° 0 mm 3 mps 745 mmHg 58%
09:00 +19°C° 0 mm 3 mps 745 mmHg 51%
10:00 +20°C° 0 mm 3 mps 744 mmHg 47%
11:00 +22°C° 0 mm 4 mps 744 mmHg 42%
12:00 +23°C° 0 mm 5 mps 744 mmHg 38%
13:00 +23°C° 0 mm 4 mps 744 mmHg 38%
14:00 +23°C° 0 mm 4 mps 744 mmHg 37%
15:00 +25°C° 0 mm 4 mps 744 mmHg 37%
16:00 +24°C° 0 mm 3 mps 744 mmHg 44%
17:00 +23°C° 0 mm 2 mps 744 mmHg 52%
18:00 +22°C° 0 mm 1 mps 744 mmHg 60%
19:00 +20°C° 0 mm 1 mps 744 mmHg 62%
20:00 +18°C° 0 mm 2 mps 744 mmHg 64%
21:00 +16°C° 0 mm 2 mps 744 mmHg 66%
22:00 +15°C° 0 mm 2 mps 744 mmHg 66%
23:00 +14°C° 0 mm 2 mps 744 mmHg 67%

18 May, Tuesday

Time Temperature Precipitation Wind Pressure Humidity
00:00 +14°C° 0 mm 2 mps 745 mmHg 68%
01:00 +13°C° 0 mm 2 mps 745 mmHg 67%
02:00 +13°C° 0 mm 2 mps 745 mmHg 67%
03:00 +12°C° 0 mm 2 mps 745 mmHg 66%
04:00 +13°C° 0 mm 2 mps 745 mmHg 67%
05:00 +13°C° 0 mm 2 mps 745 mmHg 68%
06:00 +13°C° 0 mm 2 mps 745 mmHg 69%
07:00 +16°C° 0 mm 2 mps 745 mmHg 61%
08:00 +18°C° 0 mm 3 mps 745 mmHg 53%
09:00 +20°C° 0 mm 3 mps 745 mmHg 46%
10:00 +22°C° 0 mm 3 mps 745 mmHg 43%
11:00 +25°C° 0 mm 4 mps 744 mmHg 39%
12:00 +27°C° 0 mm 4 mps 744 mmHg 36%
13:00 +27°C° 0 mm 4 mps 744 mmHg 36%
14:00 +27°C° 0 mm 4 mps 743 mmHg 36%
15:00 +28°C° 0 mm 5 mps 743 mmHg 36%
16:00 +27°C° 0 mm 4 mps 743 mmHg 42%
17:00 +26°C° 0 mm 4 mps 743 mmHg 47%
18:00 +24°C° 0 mm 3 mps 743 mmHg 53%
19:00 +21°C° 0 mm 3 mps 743 mmHg 55%
20:00 +19°C° 0 mm 3 mps 743 mmHg 57%
21:00 +17°C° 0 mm 3 mps 744 mmHg 58%
22:00 +17°C° 0 mm 3 mps 744 mmHg 57%
23:00 +16°C° 0 mm 3 mps 744 mmHg 55%

19 May, Wednesday

Time Temperature Precipitation Wind Pressure Humidity
00:00 +15°C° 0 mm 4 mps 744 mmHg 54%
01:00 +14°C° 0 mm 4 mps 744 mmHg 56%
02:00 +13°C° 0 mm 3 mps 744 mmHg 59%
03:00 +13°C° 0 mm 3 mps 744 mmHg 61%
04:00 +13°C° 0 mm 3 mps 745 mmHg 64%
05:00 +14°C° 0 mm 2 mps 745 mmHg 66%
06:00 +14°C° 0 mm 2 mps 745 mmHg 69%
07:00 +16°C° 0 mm 3 mps 745 mmHg 65%
08:00 +18°C° 0 mm 3 mps 746 mmHg 61%
09:00 +20°C° 0 mm 3 mps 746 mmHg 57%
10:00 +22°C° 0 mm 3 mps 746 mmHg 54%
11:00 +24°C° 0 mm 3 mps 746 mmHg 52%
12:00 +25°C° 0 mm 3 mps 746 mmHg 49%
13:00 +25°C° 0 mm 3 mps 746 mmHg 48%
14:00 +26°C° 0 mm 3 mps 746 mmHg 46%
15:00 +26°C° 0 mm 3 mps 745 mmHg 45%
16:00 +26°C° 0 mm 2 mps 745 mmHg 50%
17:00 +25°C° 0 mm 1 mps 745 mmHg 55%
18:00 +23°C° 0 mm 0 mps 745 mmHg 60%
19:00 +23°C° 0 mm 1 mps 745 mmHg 67%
20:00 +21°C° 0 mm 1 mps 746 mmHg 73%
21:00 +18°C° 0 mm 2 mps 747 mmHg 79%
22:00 +17°C° 0.1 mm 2 mps 747 mmHg 82%
23:00 +16°C° 0.1 mm 1 mps 748 mmHg 84%

20 May, Thursday

Time Temperature Precipitation Wind Pressure Humidity
00:00 +16°C° 0.1 mm 1 mps 748 mmHg 87%
01:00 +15°C° 0.1 mm 1 mps 748 mmHg 88%
02:00 +15°C° 0.1 mm 2 mps 748 mmHg 90%
03:00 +15°C° 0.1 mm 2 mps 748 mmHg 92%
04:00 +15°C° 0 mm 2 mps 748 mmHg 89%
05:00 +15°C° 0 mm 2 mps 748 mmHg 87%
06:00 +16°C° 0 mm 2 mps 749 mmHg 85%
07:00 +18°C° 0 mm 2 mps 749 mmHg 75%
08:00 +20°C° 0 mm 2 mps 749 mmHg 66%
09:00 +24°C° 0 mm 3 mps 749 mmHg 56%
10:00 +25°C° 0 mm 3 mps 748 mmHg 50%
11:00 +27°C° 0 mm 3 mps 748 mmHg 45%
12:00 +29°C° 0 mm 3 mps 748 mmHg 39%
13:00 +30°C° 0 mm 4 mps 747 mmHg 39%
14:00 +30°C° 0 mm 4 mps 747 mmHg 39%
15:00 +30°C° 0 mm 5 mps 747 mmHg 39%
16:00 +29°C° 0 mm 5 mps 747 mmHg 44%
17:00 +28°C° 0 mm 4 mps 746 mmHg 50%
18:00 +26°C° 0 mm 4 mps 746 mmHg 55%
19:00 +25°C° 0 mm 4 mps 747 mmHg 54%
20:00 +22°C° 0 mm 4 mps 747 mmHg 53%
21:00 +20°C° 0 mm 3 mps 747 mmHg 52%
22:00 +20°C° 0 mm 3 mps 747 mmHg 52%
23:00 +19°C° 0 mm 3 mps 747 mmHg 51%
Show more

We Need Your Consent

Meteoprog and our Service Providers may store and access personal data such as cookies, device identifiers or other similar technologies on your device and process such data to personalise content and ads, as well as provide social media features and to analyse the traffic.

  • Store and/or access information on your device

    Cookies, device identifiers or other information can be stored or accessed on your device for the purposes indicated above.

  • Personalised ads and content, ad and content measurement, audience insights, and products development

    Ads and content can be personalised based on a profile. More data can be added to better personalise ads and content. Ad and content performance can be measured. Insights about the audience who saw the ads and content can be derived. Such data can be used to develop or improve user’s experience, systems and software.

By clicking ‘I Agree’ you will allow the use of indicated cookies, device identifiers, web beacons or other similar technologies. Your settings can be changed in the browser on your device.

For certain purposes, legitimate interests may be relied on, rather than consent. You can read more about this in our Privacy and Cookie Policy.